(193) Ambrosia
ephemeris date magn radius delta ra dec elong phase
Today3 Jul 202513.81.886 AU2.889 AU06h58m+29°56'7.3°3.9°
Opposition25 Mar 202613.32.678 AU1.683 AU12h09m-06°29'174.9°1.9°
(193) Ambrosia - 2025-07-03
astro.vanbuitenen.nl


 
-1 year
-1 month
-1 day
Now
+1 day
+1 month
+1 year

The interactive orbit chart above shows the body's path through the solar system and its position at the given date. Green and blue lines are shown perpendicular to the ecliptic plane: Green if the path is above the ecliptic plane, blue if it is below. (Left-click and drag to rotate the view; Right-click and drag to move the view; Use scroll wheel to zoom in our out.)

The orbital elements of Ambrosia are:

            e (Eccentricity)                : 0.2984594
            a (Semimajor axis)              : 2.5990485
            i (Inclination)                 : 11.99464
            Ω (Longitude of ascending node) : 349.48023
            ω (Argument of perihelion)      : 82.56399
            M (Mean anomaly)                : 2.52347
            Epoch                           : 2025 May 05

            L (Longitude of perihelion)     : 71.88017
            B (Latitude of perihelion)      : 11.89228
            P (Orbital period in years)     : 4.19            
        

The light curve chart below shows the estimated development of the minor planet's magnitude.


The all-sky chart below shows the path of the minor planet over the same period as the light curve. The current position is marked yellow.





The following chart shows the path of the minor planet in the next few days. The field of view is optimized for (~10x50) binoculars and finderscopes. A more printer-friendly version of the same chart can be found below.




Ephemerides:
Date       Time       RA (2000)    DEC (2000)    delta   radius  elong  phase   PA    magn
2025-07-03 00:00 UT   06 58 12.1   +29 56 11     2.889    1.886    7.3    3.9    19   13.8 
2025-07-03 07:52 UT   06 59 07.3   +29 54 31     2.890    1.886    7.3    3.9    18   13.8 
2025-07-04 00:00 UT   07 01 00.3   +29 51 04     2.891    1.887    7.2    3.9    17   13.8 
2025-07-05 00:00 UT   07 03 47.9   +29 45 47     2.894    1.889    7.2    3.8    14   13.8 
2025-07-06 00:00 UT   07 06 35.0   +29 40 19     2.895    1.891    7.1    3.8    12   13.8 
2025-07-07 00:00 UT   07 09 21.7   +29 34 41     2.897    1.893    7.1    3.8    10   13.8 
2025-07-08 00:00 UT   07 12 07.8   +29 28 52     2.899    1.894    7.0    3.8     7   13.8 
2025-07-09 00:00 UT   07 14 53.4   +29 22 53     2.901    1.896    7.0    3.8     5   13.8 
2025-07-10 00:00 UT   07 17 38.4   +29 16 44     2.903    1.898    7.0    3.7     2   13.8 
2025-07-11 00:00 UT   07 20 23.0   +29 10 24     2.905    1.900    7.0    3.8   360   13.9 
2025-07-12 00:00 UT   07 23 07.0   +29 03 55     2.907    1.902    7.1    3.8   357   13.9 
2025-07-13 00:00 UT   07 25 50.4   +28 57 16     2.908    1.904    7.1    3.8   354   13.9 
2025-07-14 00:00 UT   07 28 33.3   +28 50 27     2.910    1.906    7.2    3.8   352   13.9 
2025-07-15 00:00 UT   07 31 15.6   +28 43 28     2.912    1.908    7.3    3.9   350   13.9 
2025-07-16 00:00 UT   07 33 57.3   +28 36 21     2.913    1.910    7.4    3.9   347   13.9 


    Terminology:
            
    delta:  distance between minor planet and earth in AU
    radius: distance between minor planet and sun in AU
    magn:   magnitude (brightness) estimate    
    ra:     right ascension in hours (24h = 360deg)
    dec:    declination in degrees
    elong:  elongation in degrees (angle sun-earth-minor planet)    
    phase:  phase angle in degrees (angle sun-minor planet-earth)        
    AU:     Astronomical Unit (mean distance between earth and sun: 149597870.7 km
    

Orbital elements provided by the MPC (Minor Planet Center).
Calculations by a modified version of AAPlus, a C# implementation of the AA+ project by PJ Naughter from the algorithms presented in the book "Astronomical Algorithms" by Jean Meeus.
NGC2000 dso catalog and star labels from VizieR as provided by the Strasbourg astronomical Data Center.
Tycho2 catalog from the ESO archive.